Location: Unspecified
(0.0000°N, 0.0000°E)
Time: 16:53:05
(UTC+00:00)

A-11 Canister half - All Passes

Search period start: 12 April 2021 00:00
Search period end: 22 April 2021 00:00
Orbit: 1525 x 1683 km, 47.3° (Epoch: 11 April)

Date Brightness Start Highest point End Pass type
(mag) Time Alt. Az. Time Alt. Az. Time Alt. Az.
12 Apr - 01:03:50 10° NNW 01:12:23 34° NE 01:20:41 10° ESE night (unlit)
12 Apr - 03:08:03 10° WNW 03:17:15 50° SW 03:26:15 10° SSE visible
12 Apr - 11:54:02 10° SSE 11:58:02 13° SE 12:02:03 10° ESE daylight
12 Apr - 13:53:42 10° SSW 14:03:23 74° SE 14:13:23 10° NE daylight
12 Apr - 16:01:05 10° W 16:08:32 24° NW 16:16:09 10° N daylight
13 Apr - 00:42:19 10° N 00:50:42 32° NE 00:58:50 10° ESE night (unlit)
13 Apr - 02:46:16 10° NW 02:55:36 54° SW 03:04:42 10° SSE visible
13 Apr - 11:33:16 10° SSE 11:36:18 12° SE 11:39:20 10° ESE daylight
13 Apr - 13:32:05 10° SSW 13:41:43 69° SE 13:51:38 10° NE daylight
13 Apr - 15:39:06 10° W 15:46:48 26° NW 15:54:42 10° N daylight
14 Apr - 00:20:50 10° N 00:29:01 30° NE 00:36:56 10° ESE night (unlit)
14 Apr - 02:24:29 10° NW 02:33:56 58° SW 02:43:09 10° SSE visible
14 Apr - 11:13:06 10° SE 11:14:33 10° SE 11:15:59 10° SE daylight
14 Apr - 13:10:30 10° SSW 13:20:03 64° SE 13:29:53 10° NE daylight
14 Apr - 15:17:09 10° WSW 15:25:06 28° NW 15:33:14 10° N daylight
14 Apr - 23:59:21 10° N 00:07:19 28° NE 00:15:02 10° ESE night (unlit)
15 Apr - 02:02:44 10° NW 02:12:17 63° SW 02:21:35 10° SSE visible
15 Apr - 12:48:55 10° SSW 12:58:23 60° SE 13:08:07 10° NE daylight
15 Apr - 14:55:14 10° WSW 15:03:24 30° NW 15:11:46 10° N daylight
15 Apr - 23:37:54 10° N 23:45:37 26° NE 23:53:07 10° E night (unlit)
16 Apr - 01:40:59 10° NW 01:50:38 67° SW 02:00:01 10° SSE night (unlit)
16 Apr - 03:53:50 10° WSW 03:56:01 11° SW 03:58:13 10° SSW visible
16 Apr - 12:27:22 10° SSW 12:36:43 56° SE 12:46:20 10° NE daylight
16 Apr - 14:33:21 10° WSW 14:41:41 32° NW 14:50:16 10° N daylight
16 Apr - 23:16:28 10° N 23:23:54 24° NE 23:31:09 10° E night (unlit)
17 Apr - 01:19:15 10° NW 01:28:59 72° SW 01:38:26 10° SSE night (unlit)
17 Apr - 03:30:53 10° WSW 03:34:17 12° SW 03:37:41 10° SSW visible
17 Apr - 12:05:49 10° SSW 12:15:03 52° SE 12:24:32 10° NE daylight
17 Apr - 14:11:28 10° WSW 14:19:59 34° NW 14:28:46 10° NNE daylight
17 Apr - 22:55:03 10° N 23:02:11 22° NE 23:09:09 10° E visible
18 Apr - 00:57:31 10° NW 01:07:20 77° SW 01:16:50 10° SE night (unlit)
18 Apr - 03:08:18 10° WSW 03:12:34 14° SW 03:16:48 10° SSW visible
18 Apr - 11:44:17 10° SSW 11:53:23 48° SE 12:02:44 10° ENE daylight
18 Apr - 13:49:37 10° WSW 13:58:18 37° NW 14:07:14 10° NNE daylight
18 Apr - 22:33:40 10° N 22:40:28 20° NE 22:47:07 10° E visible
19 Apr - 00:35:49 10° NW 00:45:40 82° SW 00:55:13 10° SE night (unlit)
19 Apr - 02:45:54 10° WSW 02:50:50 15° SW 02:55:46 10° SSW night (unlit)
19 Apr - 11:22:46 10° SSW 11:31:43 45° SE 11:40:54 10° ENE daylight
19 Apr - 13:27:48 10° WSW 13:36:36 40° NW 13:45:41 10° NNE daylight
19 Apr - 22:12:19 10° N 22:18:44 19° NE 22:25:01 10° E visible
20 Apr - 00:14:06 10° NW 00:24:00 87° SW 00:33:36 10° SE night (unlit)
20 Apr - 02:23:36 10° W 02:29:08 17° SW 02:34:37 10° S night (unlit)
20 Apr - 11:01:15 10° SSW 11:10:04 42° SE 11:19:03 10° ENE daylight
20 Apr - 13:06:00 10° WSW 13:14:55 43° NW 13:24:08 10° NNE daylight
20 Apr - 21:51:00 10° N 21:57:00 17° NE 22:02:53 10° E visible
20 Apr - 23:52:25 10° NW 00:02:21 88° NE 00:11:57 10° SE night (unlit)
21 Apr - 02:01:23 10° W 02:07:25 18° SW 02:13:24 10° S night (unlit)
21 Apr - 10:39:46 10° SSW 10:48:23 39° SE 10:57:12 10° ENE daylight
21 Apr - 12:44:13 10° WSW 12:53:14 46° NW 13:02:34 10° NNE daylight
21 Apr - 21:29:45 10° N 21:35:16 16° NE 21:40:41 10° E visible
21 Apr - 23:30:44 10° NW 23:40:41 82° NE 23:50:18 10° SE night (unlit)
